Flag for Saint Vincent and Grenadines Weather past 2 weeks in Kingstown, Saint Vincent and Grenadines

Now
86 °F

Scattered clouds.


Feels Like: 93 °F
Forecast: N/A
Wind: 14 mph from East

Location: Arnos Vale

Current Time: Dec 22, 2014 at 4:42:13 PM

Latest Report: Dec 22, 2014 at 3:00 PM


Visibility: N/A

Pressure: 29.92 "Hg

Humidity: 66%

Dew point: 73 °F

Location of KingstownLocation

Historic Weather in Kingstown — Graph

°F

Kingstown temperature yesterday

Maximum temperature yesterday: 86 °F (at 11:00 AM)
Minimum temperature yesterday: 81 °F (at 12:00 AM)
Average temperature yesterday: 83 °F

Past Weeks' High & Low Weather Summary

 TemperatureHumidityPressure
High88 °F (Dec 7, 3:00 PM)89% (Dec 8, 6:00 AM)30.04 "Hg (Dec 8, 6:00 AM)
Low77 °F (Dec 14, 6:00 AM)62% (Dec 12, 10:00 AM)29.86 "Hg (Dec 7, 4:00 PM)
Average83 °F74%29.96 "Hg
* Reported Dec 7 3:00 PM — Dec 22 3:00 PM, Kingstown, Weather by CustomWeather, © 2014

Note: Actual official high and low records may vary slightly from our data, if they occured in-between our weather recording intervals... More about our weather records

Advertising

Kingstown weather history for previous 24 hours

 ConditionsComfort  
Time TempWeatherWind HumidityBarometerVisibility
3:00 PM
Dec 22
86 °FScattered clouds.14 mph66%29.92 "HgN/A
2:00 PM86 °FScattered clouds.15 mph66%29.98 "HgN/A
1:00 PM86 °FScattered clouds.18 mph62%29.98 "HgN/A
12:00 PM86 °FScattered clouds.20 mph66%30.01 "HgN/A
11:00 AM86 °FScattered clouds.18 mph62%30.01 "HgN/A
10:00 AM84 °FScattered clouds.16 mph70%30.04 "HgN/A
9:00 AM84 °FScattered clouds.18 mph66%30.01 "HgN/A
8:00 AM82 °FScattered clouds.18 mph70%30.01 "HgN/A
7:00 AM81 °FScattered clouds.15 mph74%29.98 "HgN/A
6:00 AM81 °FPassing clouds.16 mph74%29.95 "HgN/A
1:00 AM81 °FPassing clouds.13 mph74%30.01 "HgN/A
11:00 PM
Dec 21
81 °FSprinkles. Passing clouds.12 mph74%30.04 "HgN/A
10:00 PM81 °FPassing clouds.14 mph74%30.04 "HgN/A
9:00 PM82 °FPassing clouds.14 mph70%30.01 "HgN/A
8:00 PM81 °FPassing clouds.15 mph74%29.95 "HgN/A
7:00 PMN/A13 mphN/AN/AN/A
6:00 PM82 °FWarm.14 mph70%29.95 "HgN/A
5:00 PM84 °FScattered clouds.13 mph70%29.95 "HgN/A
4:00 PM86 °FPartly sunny.13 mph66%29.95 "HgN/A
Weather by CustomWeather, © 2014

See weather overviewHow to use our weather pages